This demonstration page uses our WeatherBlox Daily Observations layout. Learn more.

Left ArrowRight Arrow

39.51506, -84.39828

Hourly Observations for April 18, 2016

Temp ( °F °C ) Dew Point ( °F °C ) Humidity (%) Winds ( mph kmh ) Pressure ( in mb ) Visibility ( mi km ) Precip ( " mm )
12:15 am 00:15 Clear 55 12.5 46 7.8 73 73 NNE 3 6 30.36 1028 10 16 N/A
12:35 am 00:35 Clear 55 12.5 47 8.3 76 76 N 3 6 30.33 1027 10 16 N/A
12:55 am 00:55 Clear 55 12.5 47 8.3 76 76 N N/A 30.33 1027 10 16 N/A
1:15 am 01:15 Clear 52 11 45 7.3 78 78 N N/A 30.33 1027 10 16 N/A
1:35 am 01:35 Clear 54 12.2 47 8.4 78 78 NNE 3 6 30.33 1027 10 16 N/A
1:55 am 01:55 Clear 52 11 46 7.5 79 79 N N/A 30.36 1028 10 16 N/A
2:15 am 02:15 Clear 51 10.8 45 7 78 78 N 3 6 30.36 1028 10 16 N/A
2:35 am 02:35 Clear 51 10.3 44 6.9 80 80 NE 6 9 30.36 1028 10 16 N/A
2:55 am 02:55 Clear 50 10 44 6.9 81 81 NE 3 6 30.33 1027 10 16 N/A
3:15 am 03:15 Clear 49 9.6 43 6.2 80 80 NE 3 6 30.33 1027 10 16 N/A
3:35 am 03:35 Clear 49 9.6 44 6.5 81 81 undefined N/A 30.33 1027 10 16 N/A
3:55 am 03:55 Clear 49 9.6 44 6.8 83 83 NNE 5 7 30.33 1027 10 16 N/A
4:15 am 04:15 Clear 49 9.6 43 6.2 80 80 NE 5 7 30.33 1027 10 16 N/A
4:35 am 04:35 Clear 49 9.6 44 6.5 81 81 N N/A 30.33 1027 10 16 N/A
4:55 am 04:55 Clear 49 9.6 45 7 84 84 N N/A 30.33 1027 10 16 N/A
5:15 am 05:15 Clear 49 9.6 45 7.2 85 85 N N/A 30.33 1027 10 16 N/A
5:35 am 05:35 Clear 47 8.5 43 6.1 85 85 NNE 3 6 30.33 1027 10 16 N/A
5:55 am 05:55 Clear 47 8.4 43 6.1 86 86 N N/A 30.33 1027 10 16 N/A
6:15 am 06:15 Clear 49 9.6 45 7.2 85 85 N N/A 30.33 1027 10 16 N/A
6:35 am 06:35 Clear 47 8.2 43 6 86 86 N N/A 30.33 1027 10 16 N/A
6:55 am 06:55 Sunny 47 8.2 43 6 86 86 N N/A 30.33 1027 10 16 N/A
7:15 am 07:15 Sunny 46 8 42 5.8 86 86 NE 3 6 30.33 1027 10 16 N/A
7:35 am 07:35 Sunny 49 9.6 45 7.4 86 86 N N/A 30.33 1027 10 16 N/A
7:55 am 07:55 Sunny 49 9.6 45 7.3 86 86 N N/A 30.36 1028 10 16 N/A
8:15 am 08:15 Sunny 55 12.5 49 9.5 82 82 N N/A 30.36 1028 10 16 N/A
8:35 am 08:35 Sunny 55 12.5 49 9.3 81 81 N N/A 30.36 1028 10 16 N/A
8:55 am 08:55 Sunny 57 13.8 49 9.5 75 75 N N/A 30.36 1028 10 16 N/A
9:15 am 09:15 Sunny 61 16 49 9.2 64 64 N N/A 30.36 1028 10 16 N/A
9:35 am 09:35 Sunny 63 17.2 46 8 55 55 N N/A 30.36 1028 10 16 N/A
9:55 am 09:55 Sunny 67 19.4 46 7.5 46 46 undefined N/A 30.33 1027 10 16 N/A
10:15 am 10:15 Sunny 68 20 46 8 46 46 N N/A 30.33 1027 10 16 N/A
10:35 am 10:35 Sunny 69 20.8 47 8.4 45 45 N N/A 30.33 1027 10 16 N/A
10:55 am 10:55 Sunny 69 20.8 46 7.9 44 44 N N/A 30.33 1027 10 16 N/A
11:15 am 11:15 Sunny 74 23.6 49 9.2 40 40 N N/A 30.33 1027 10 16 N/A
11:35 am 11:35 Sunny 74 23.6 46 8 37 37 SW 3 6 30.33 1027 10 16 N/A
11:55 am 11:55 Sunny 76 24.6 43 5.9 30 30 N N/A 30.33 1027 10 16 N/A
12:15 pm 12:15 Sunny 77 25.1 37 2.8 23 23 SW 6 9 30.33 1027 10 16 N/A
12:35 pm 12:35 Sunny 80 26.5 41 4.9 25 25 SW 6 9 30.33 1027 10 16 N/A
12:55 pm 12:55 Sunny 80 26.5 34 1.1 19 19 WSW 5 7 30.30 1026 10 16 N/A
1:15 pm 13:15 Sunny 80 26.5 32 0.2 18 18 N N/A 30.30 1026 10 16 N/A
1:35 pm 13:35 Sunny 80 26.6 31 -0.4 17 17 N N/A 30.30 1026 10 16 N/A
1:55 pm 13:55 Sunny 81 27.2 34 1 18 18 WSW 3 6 30.27 1025 10 16 N/A
2:15 pm 14:15 Sunny 82 27.6 29 -1.4 15 15 WSW 6 9 30.27 1025 10 16 N/A
2:35 pm 14:35 Sunny 81 27.3 28 -2 14 14 ESE 3 6 30.27 1025 10 16 N/A
2:55 pm 14:55 Sunny 82 28 30 -1.3 15 15 SW 3 6 30.27 1025 10 16 N/A
3:15 pm 15:15 Sunny 82 28 26 -3.5 12 12 N N/A 30.24 1024 10 16 N/A
3:35 pm 15:35 Sunny 82 28 25 -3.8 12 12 N N/A 30.24 1024 10 16 N/A
3:55 pm 15:55 Sunny 82 28 28 -2 14 14 SW 8 13 30.24 1024 10 16 N/A
4:15 pm 16:15 Sunny 82 28 27 -2.9 13 13 N N/A 30.24 1024 10 16 N/A
4:35 pm 16:35 Sunny 82 28 26 -3.3 13 13 N N/A 30.21 1023 10 16 N/A
4:55 pm 16:55 Sunny 83 28.2 26 -3.5 12 12 W 5 7 30.21 1023 10 16 N/A
5:15 pm 17:15 Sunny 82 28 27 -2.6 13 13 N N/A 30.21 1023 10 16 N/A
5:35 pm 17:35 Sunny 82 28 26 -3.5 12 12 SW 7 11 30.21 1023 10 16 N/A
5:55 pm 17:55 Sunny 82 28 26 -3.2 13 13 SW 5 7 30.21 1023 10 16 N/A
6:15 pm 18:15 Sunny 82 28 29 -1.9 14 14 WNW 5 7 30.21 1023 10 16 N/A
6:35 pm 18:35 Sunny 82 28 30 -0.9 15 15 W 5 7 30.21 1023 10 16 N/A
6:55 pm 18:55 Sunny 81 27.1 34 1.3 19 19 SW 5 7 30.18 1022 10 16 N/A
7:15 pm 19:15 Sunny 80 26.5 32 -0.1 17 17 SW 3 6 30.18 1022 10 16 N/A
7:35 pm 19:35 Sunny 80 26.5 38 3.2 22 22 N N/A 30.18 1022 10 16 N/A
7:55 pm 19:55 Sunny 77 25.1 33 0.6 20 20 N N/A 30.18 1022 10 16 N/A
8:15 pm 20:15 Sunny 72 22.3 51 10.5 47 47 N N/A 30.18 1022 10 16 N/A
8:35 pm 20:35 Clear 69 20.8 50 9.9 50 50 N N/A 30.18 1022 10 16 N/A
8:55 pm 20:55 Clear 68 19.8 53 11.7 60 60 N N/A 30.18 1022 10 16 N/A
9:15 pm 21:15 Clear 64 18 51 10.5 62 62 N N/A 30.18 1022 10 16 N/A
9:35 pm 21:35 Clear 63 17.1 47 8.2 56 56 N N/A 30.21 1023 10 16 N/A
9:55 pm 21:55 Clear 61 16.3 50 9.9 66 66 N N/A 30.21 1023 10 16 N/A
10:15 pm 22:15 Clear 60 15.3 48 8.7 65 65 N N/A 30.24 1024 10 16 N/A
10:35 pm 22:35 Clear 60 15.5 47 8.5 63 63 N N/A 30.24 1024 10 16 N/A
10:55 pm 22:55 Clear 60 15.3 49 9.6 69 69 N N/A 30.24 1024 10 16 N/A
11:15 pm 23:15 Clear 60 15.3 49 9.3 68 68 N 3 6 30.24 1024 10 16 N/A
11:35 pm 23:35 Clear 60 15.3 49 9.3 68 68 N N/A 30.21 1023 10 16 N/A
11:55 pm 23:55 Clear 57 13.8 47 8.6 71 71 N N/A 30.21 1023 10 16 N/A

Powered by AerisWeather